| time (UTC) | temp F | wind direction | speed knots | gust knots | rain 1hr in | rain 24hr in | rain mn in | humidity % | barometer mb |
| 20260505014510 | 47 | 126 | 0.0 | 4.3 | 0.06 | 0.07 | 0.06 | 78 | 1003.6 |
| 20260505013009 | 47 | 44 | 3.5 | 8.7 | 0.01 | 0.02 | 0.01 | 80 | 1004.9 |
| 20260505011507 | 47 | 350 | 3.5 | 9.6 | 0.01 | 0.02 | 0.01 | 80 | 1004.8 |
| 20260505010014 | 49 | 14 | 4.3 | 11.3 | 0.01 | 0.02 | 0.01 | 80 | 1004.4 |
| 20260505004507 | 52 | 323 | 6.1 | 10.4 | 0.00 | 0.01 | 0.00 | 76 | 1004.3 |
| 20260505003006 | 55 | 302 | 1.7 | 8.7 | 0.00 | 0.01 | 0.00 | 68 | 1003.7 |
| 20260505001508 | 56 | 35 | 0.0 | 5.2 | 0.00 | 0.01 | 0.00 | 61 | 1003.0 |
| 20260505000005 | 56 | 38 | 1.7 | 8.7 | 0.00 | 0.01 | 0.00 | 62 | 1002.7 |
| 20260504234506 | 56 | 350 | 4.3 | 12.2 | 0.00 | 0.01 | 0.00 | 63 | 1002.8 |
| 20260504233004 | 59 | 178 | 0.0 | 2.6 | 0.00 | 0.01 | 0.00 | 56 | 1002.8 |
| 20260504231504 | 59 | 146 | 0.9 | 6.1 | 0.00 | 0.01 | 0.00 | 57 | 1002.4 |
| 20260504230002 | 59 | 154 | 3.5 | 10.4 | 0.00 | 0.01 | 0.00 | 57 | 1002.8 |
| 20260504224600 | 60 | 161 | 2.6 | 9.6 | 0.00 | 0.01 | 0.00 | 56 | 1003.1 |
| 20260504223058 | 59 | 338 | 1.7 | 5.2 | 0.00 | 0.01 | 0.00 | 58 | 1003.0 |
| 20260504221558 | 59 | 338 | 2.6 | 6.1 | 0.00 | 0.01 | 0.00 | 60 | 1003.1 |
| 20260504220053 | 58 | 350 | 0.0 | 7.0 | 0.00 | 0.01 | 0.00 | 64 | 1003.0 |
| 20260504214550 | 57 | 34 | 0.9 | 4.3 | 0.00 | 0.01 | 0.00 | 69 | 1003.1 |
| 20260504213050 | 56 | 28 | 4.3 | 7.8 | 0.00 | 0.01 | 0.00 | 70 | 1003.7 |
| 20260504211547 | 56 | 30 | 0.0 | 2.6 | 0.00 | 0.01 | 0.00 | 75 | 1003.9 |
| 20260504210043 | 55 | 20 | 0.0 | 3.5 | 0.00 | 0.01 | 0.00 | 76 | 1003.8 |
| 20260504204539 | 53 | 15 | 0.9 | 7.0 | 0.00 | 0.01 | 0.00 | 78 | 1003.9 |
| 20260504203044 | 52 | 339 | 4.3 | 9.6 | 0.00 | 0.01 | 0.00 | 80 | 1003.8 |
| 20260504201537 | 52 | 9 | 1.7 | 7.0 | 0.00 | 0.01 | 0.00 | 72 | 1004.6 |
| 20260504200035 | 53 | 342 | 0.9 | 5.2 | 0.00 | 0.01 | 0.00 | 76 | 1003.7 |
| 20260504194535 | 52 | 343 | 1.7 | 5.2 | 0.00 | 0.01 | 0.00 | 78 | 1004.1 |
| 20260504193035 | 52 | 344 | 2.6 | 6.1 | 0.00 | 0.01 | 0.00 | 79 | 1004.1 |
| 20260504191534 | 52 | 349 | 2.6 | 6.1 | 0.00 | 0.01 | 0.00 | 79 | 1004.4 |
| 20260504190034 | 52 | 321 | 0.9 | 6.1 | 0.00 | 0.01 | 0.00 | 78 | 1004.2 |
| 20260504184532 | 52 | 318 | 2.6 | 7.8 | 0.00 | 0.01 | 0.00 | 78 | 1004.2 |
| 20260504183032 | 53 | 130 | 0.0 | 4.3 | 0.00 | 0.01 | 0.00 | 75 | 1004.1 |
| 20260504181531 | 52 | 130 | 0.0 | 3.5 | 0.00 | 0.01 | 0.00 | 75 | 1004.0 |
| 20260504180030 | 52 | 130 | 0.0 | 3.5 | 0.00 | 0.01 | 0.00 | 78 | 1004.1 |
| 20260504174529 | 51 | 130 | 0.0 | 0.9 | 0.00 | 0.01 | 0.00 | 81 | 1004.1 |
| 20260504173029 | 50 | 130 | 0.0 | 0.9 | 0.00 | 0.01 | 0.00 | 80 | 1004.4 |
| 20260504171542 | 50 | 130 | 0.0 | 3.5 | 0.00 | 0.01 | 0.00 | 80 | 1004.2 |
| 20260504081534 | 48 | 360 | 0.0 | 4.3 | 0.00 | 0.01 | 0.00 | 68 | 1004.3 |
| 20260504050012 | 49 | 138 | 0.0 | 1.7 | 0.00 | 0.01 | 0.01 | 71 | 1004.6 |
| 20260504044519 | 50 | 138 | 0.0 | 0.0 | 0.00 | 0.01 | 0.01 | 70 | 1004.7 |
| 20260504043012 | 51 | 274 | 0.0 | 0.0 | 0.00 | 0.01 | 0.01 | 66 | 1004.7 |
| 20260504041513 | 51 | 360 | 0.0 | 2.6 | 0.00 | 0.01 | 0.01 | 65 | 1004.5 |
| 20260504040013 | 52 | 360 | 0.0 | 0.0 | 0.00 | 0.01 | 0.01 | 64 | 1004.2 |
| 20260504034509 | 52 | 360 | 0.0 | 3.5 | 0.01 | 0.01 | 0.01 | 63 | 1003.8 |
| 20260504033012 | 53 | 360 | 0.0 | 0.0 | 0.01 | 0.01 | 0.01 | 63 | 1003.6 |
| 20260504031508 | 53 | 360 | 0.0 | 5.2 | 0.01 | 0.01 | 0.01 | 62 | 1003.6 |
| 20260504030013 | 54 | 360 | 0.0 | 7.0 | 0.01 | 0.01 | 0.01 | 61 | 1003.6 |
| 20260504024507 | 54 | 360 | 0.0 | 3.5 | 0.00 | 0.00 | 0.00 | 59 | 1003.5 |
| 20260504023008 | 55 | 360 | 0.0 | 7.8 | 0.00 | 0.00 | 0.00 | 62 | 1003.6 |
| 20260504021508 | 55 | 178 | 2.6 | 7.0 | 0.00 | 0.00 | 0.00 | 57 | 1004.5 |
| 20260504020006 | 55 | 178 | 4.3 | 6.1 | 0.00 | 0.00 | 0.00 | 59 | 1004.6 |